TimeMST,TemperatureF,Dew PointF,Humidity,Sea Level PressureIn,VisibilityMPH,Wind Direction,Wind SpeedMPH,Gust SpeedMPH,PrecipitationIn,Events,Conditions,WindDirDegrees,DateUTC
12:14 AM,23.0,23.0,100,29.65,0.5,NE,4.6,-,N/A,Fog,Light Freezing Fog,50,2013-01-29 07:14:00
12:35 AM,23.0,23.0,100,29.64,0.5,ENE,5.8,-,N/A,Fog,Light Freezing Fog,70,2013-01-29 07:35:00
12:55 AM,23.0,23.0,100,29.65,0.2,ENE,5.8,-,N/A,Snow,Light Snow,60,2013-01-29 07:55:00
1:15 AM,23.0,21.2,93,29.63,1.0,NE,9.2,-,N/A,Snow,Light Snow,40,2013-01-29 08:15:00
1:34 AM,23.0,21.2,93,29.63,3.0,NE,8.1,-,N/A,Snow,Light Snow,50,2013-01-29 08:34:00
1:55 AM,21.2,21.2,100,29.63,5.0,NE,8.1,-,N/A,Snow,Light Snow,50,2013-01-29 08:55:00
2:15 AM,21.2,21.2,100,29.63,5.0,NE,8.1,-,N/A,Snow,Light Snow,40,2013-01-29 09:15:00
2:35 AM,21.2,19.4,93,29.63,2.5,ENE,9.2,-,N/A,Snow,Light Snow,60,2013-01-29 09:35:00
2:55 AM,21.2,19.4,93,29.63,0.8,NE,9.2,-,N/A,Snow,Light Snow,50,2013-01-29 09:55:00
3:15 AM,19.4,17.6,93,29.62,10.0,ENE,9.2,-,N/A,Snow,Light Snow,60,2013-01-29 10:15:00
3:35 AM,17.6,15.8,93,29.62,10.0,ENE,9.2,-,N/A,Snow,Light Snow,60,2013-01-29 10:35:00
3:55 AM,17.6,15.8,93,29.61,5.0,ENE,9.2,-,N/A,Snow,Light Snow,70,2013-01-29 10:55:00
4:15 AM,17.6,14.0,86,29.62,7.0,NE,5.8,-,N/A,,Overcast,40,2013-01-29 11:15:00
4:35 AM,17.6,15.8,93,29.61,7.0,NE,5.8,-,N/A,,Overcast,40,2013-01-29 11:35:00
4:54 AM,17.6,15.8,93,29.61,10.0,NE,6.9,-,N/A,,Overcast,50,2013-01-29 11:54:00
5:15 AM,17.6,15.8,93,29.61,3.0,NE,6.9,-,N/A,Snow,Light Snow,50,2013-01-29 12:15:00
5:35 AM,17.6,14.0,86,29.61,3.0,ENE,4.6,-,N/A,Snow,Light Snow,60,2013-01-29 12:35:00
5:55 AM,17.6,14.0,86,29.61,5.0,NE,4.6,-,N/A,Snow,Light Snow,40,2013-01-29 12:55:00
6:15 AM,15.8,14.0,93,29.61,4.0,NE,5.8,-,N/A,Snow,Light Snow,50,2013-01-29 13:15:00
6:35 AM,15.8,14.0,93,29.61,7.0,NE,4.6,-,N/A,Snow,Light Snow,40,2013-01-29 13:35:00
6:54 AM,15.8,14.0,93,29.61,5.0,NE,3.5,-,N/A,Snow,Light Snow,40,2013-01-29 13:54:00
7:15 AM,15.8,14.0,93,29.61,4.0,NE,3.5,-,N/A,Snow,Light Snow,40,2013-01-29 14:15:00
7:35 AM,15.8,14.0,93,29.61,1.2,Calm,Calm,-,N/A,Snow,Light Snow,0,2013-01-29 14:35:00
7:55 AM,15.8,14.0,93,29.61,1.2,NE,3.5,-,N/A,Snow,Light Snow,50,2013-01-29 14:55:00
8:15 AM,17.6,14.0,86,29.61,1.0,NE,3.5,-,N/A,Snow,Light Snow,50,2013-01-29 15:15:00
8:35 AM,17.6,14.0,86,29.62,1.8,NE,3.5,-,N/A,Snow,Light Snow,40,2013-01-29 15:35:00
8:55 AM,17.6,14.0,86,29.61,4.0,Calm,Calm,-,N/A,Snow,Light Snow,0,2013-01-29 15:55:00
9:15 AM,17.6,14.0,86,29.62,10.0,Calm,Calm,-,N/A,,Overcast,0,2013-01-29 16:15:00
9:35 AM,17.6,14.0,86,29.62,10.0,Calm,Calm,-,N/A,,Overcast,0,2013-01-29 16:35:00
9:55 AM,19.4,15.8,86,29.62,10.0,Calm,Calm,-,N/A,,Scattered Clouds,0,2013-01-29 16:55:00
10:14 AM,19.4,14.0,80,29.62,10.0,Calm,Calm,-,N/A,,Mostly Cloudy,0,2013-01-29 17:14:00
10:35 AM,19.4,15.8,86,29.63,10.0,NNW,4.6,-,N/A,,Overcast,330,2013-01-29 17:35:00
10:55 AM,21.2,14.0,74,29.62,10.0,NNW,5.8,-,N/A,,Overcast,330,2013-01-29 17:55:00
11:15 AM,21.2,12.2,68,29.61,10.0,NNW,9.2,-,N/A,,Overcast,330,2013-01-29 18:15:00
11:35 AM,21.2,12.2,68,29.61,10.0,NNW,9.2,-,N/A,,Overcast,340,2013-01-29 18:35:00
11:55 AM,23.0,12.2,63,29.60,10.0,NNW,10.4,-,N/A,,Overcast,340,2013-01-29 18:55:00
12:15 PM,23.0,12.2,63,29.59,10.0,NW,13.8,-,N/A,,Overcast,320,2013-01-29 19:15:00
12:35 PM,23.0,10.4,59,29.58,10.0,NNW,10.4,-,N/A,,Scattered Clouds,340,2013-01-29 19:35:00
12:55 PM,23.0,8.6,54,29.58,10.0,NNW,12.7,-,N/A,,Clear,340,2013-01-29 19:55:00
1:15 PM,24.8,12.2,59,29.57,10.0,North,12.7,-,N/A,,Scattered Clouds,10,2013-01-29 20:15:00
1:35 PM,23.0,10.4,59,29.58,10.0,North,13.8,-,N/A,,Scattered Clouds,10,2013-01-29 20:35:00
1:55 PM,23.0,10.4,59,29.59,10.0,North,15.0,20.7,N/A,,Mostly Cloudy,10,2013-01-29 20:55:00
2:15 PM,23.0,8.6,54,29.60,10.0,North,13.8,-,N/A,,Overcast,10,2013-01-29 21:15:00
2:35 PM,23.0,8.6,54,29.60,10.0,North,11.5,-,N/A,,Overcast,10,2013-01-29 21:35:00
2:55 PM,21.2,5.0,50,29.61,10.0,North,13.8,20.7,N/A,,Scattered Clouds,10,2013-01-29 21:55:00
3:14 PM,21.2,3.2,46,29.62,10.0,North,16.1,-,N/A,,Clear,360,2013-01-29 22:14:00
3:35 PM,21.2,5.0,50,29.63,10.0,North,17.3,23.0,N/A,,Scattered Clouds,10,2013-01-29 22:35:00
3:55 PM,21.2,5.0,50,29.64,10.0,North,16.1,23.0,N/A,,Scattered Clouds,360,2013-01-29 22:55:00
4:15 PM,21.2,6.8,54,29.65,10.0,North,16.1,24.2,N/A,,Mostly Cloudy,350,2013-01-29 23:15:00
4:33 PM,21.2,6.8,54,29.66,10.0,North,15.0,23.0,N/A,,Overcast,350,2013-01-29 23:33:00
4:55 PM,19.4,8.6,63,29.67,10.0,NNE,13.8,-,N/A,,Overcast,20,2013-01-29 23:55:00
5:15 PM,19.4,10.4,68,29.69,7.0,North,12.7,-,N/A,,Overcast,10,2013-01-30 00:15:00
5:33 PM,19.4,10.4,68,29.70,7.0,NNE,15.0,21.9,N/A,Snow,Light Snow,20,2013-01-30 00:33:00
5:55 PM,17.6,14.0,86,29.72,1.5,North,11.5,18.4,N/A,Snow,Light Snow,10,2013-01-30 00:55:00
6:15 PM,17.6,14.0,86,29.73,1.8,NNW,15.0,19.6,N/A,Snow,Light Snow,340,2013-01-30 01:15:00
6:35 PM,17.6,12.2,79,29.74,2.5,North,17.3,21.9,N/A,Snow,Light Snow,350,2013-01-30 01:35:00
6:55 PM,15.8,14.0,93,29.75,1.5,NNW,13.8,-,N/A,Snow,Light Snow,340,2013-01-30 01:55:00
7:15 PM,15.8,14.0,93,29.76,1.2,North,19.6,-,N/A,Snow,Light Snow,350,2013-01-30 02:15:00
7:55 PM,15.8,12.2,86,29.77,1.2,North,13.8,20.7,N/A,Snow,Light Snow,360,2013-01-30 02:55:00
8:15 PM,15.8,12.2,86,29.78,2.0,North,15.0,20.7,N/A,Snow,Light Snow,360,2013-01-30 03:15:00
8:35 PM,15.8,12.2,86,29.79,3.0,North,17.3,21.9,N/A,Snow,Light Snow,360,2013-01-30 03:35:00
8:55 PM,14.0,10.4,86,29.79,4.0,North,12.7,17.3,N/A,Snow,Light Snow,360,2013-01-30 03:55:00
9:15 PM,14.0,12.2,93,29.80,4.0,North,12.7,-,N/A,Snow,Light Snow,350,2013-01-30 04:15:00
9:35 PM,14.0,12.2,93,29.80,5.0,North,11.5,-,N/A,Snow,Light Snow,350,2013-01-30 04:35:00
9:55 PM,14.0,10.4,86,29.81,10.0,North,11.5,-,N/A,,Overcast,350,2013-01-30 04:55:00
10:15 PM,14.0,10.4,86,29.81,3.0,North,15.0,23.0,N/A,Snow,Light Snow,350,2013-01-30 05:15:00
10:34 PM,14.0,12.2,93,29.82,2.0,North,16.1,-,N/A,Snow,Light Snow,350,2013-01-30 05:34:00
11:35 PM,14.0,10.4,86,29.83,3.0,North,12.7,-,N/A,Snow,Light Snow,360,2013-01-30 06:35:00
11:55 PM,12.2,10.4,92,29.83,3.0,North,11.5,-,N/A,Snow,Light Snow,350,2013-01-30 06:55:00